Find Terra

NORAD ID: 25994 Int'l Des: 1999-068 Owner: GSFC Country: US operational
LEOCIRCULARRETROGRADESSO

Live Position

Loading 3D Globe...

About Terra

Description loading...

Upcoming Passes

Passes for default location (London). Set your location on the main map for personalized predictions.

Altitude History

Loading altitude history...

Two-Line Element Set

1 25994U 99068A 26111.92620425 .00000266 00000-0 63103-4 0 9993
2 25994 97.9509 163.6898 0003395 64.7361 338.8156 14.61056876401393
Epoch: Apr 21, 2026 • Age: 5 hours

Current Status

Altitude 699.0 km
Velocity 7.51 km/s
Sub-Earth Point -24.76°S, 85.36°W
Launch Date Dec 18, 1999
Age 26.3 years
Type other

Technical Details

Classification Payload
Mass 5190.00 kg
Dry Mass 4854.00 kg
Total Mass 5190.00 kg
Length 6.80 m
Diameter 3.50 m
Span 10.00 m
Shape Box + Pan
Manufacturer LMVF
Bus Type EOS
Phase Status In Orbit
Owner/State GSFC/US

Most Searched